| time (UTC) | temp F | wind direction | speed MPH | gust MPH | rain 1hr in | rain 24hr in | rain mn in | humidity % | barometer mb |
| 20260505083342 | 52 | 321 | 3.0 | 10.0 | 0.00 | 0.01 | 0.00 | 72 | 1012.0 |
| 20260505082836 | 52 | 309 | 6.0 | 11.0 | 0.00 | 0.01 | 0.00 | 72 | 1012.0 |
| 20260505082335 | 52 | 340 | 5.0 | 11.0 | 0.00 | 0.01 | 0.00 | 70 | 1012.0 |
| 20260505081833 | 52 | 340 | 4.0 | 11.0 | 0.00 | 0.01 | 0.00 | 67 | 1012.0 |
| 20260505081332 | 53 | 292 | 5.0 | 10.0 | 0.00 | 0.01 | 0.00 | 67 | 1012.0 |
| 20260505080830 | 53 | 350 | 5.0 | 13.0 | 0.00 | 0.01 | 0.00 | 68 | 1012.0 |
| 20260505080553 | 53 | 0 | 4.0 | 13.0 | 0.00 | 0.01 | 0.00 | 68 | 1012.0 |
| 20260505075826 | 53 | 326 | 5.0 | 14.0 | 0.00 | 0.01 | 0.00 | 66 | 1012.0 |
| 20260505075327 | 53 | 353 | 7.0 | 15.0 | 0.00 | 0.01 | 0.00 | 67 | 1012.0 |
| 20260505074825 | 53 | 321 | 7.0 | 15.0 | 0.00 | 0.01 | 0.00 | 68 | 1011.9 |
| 20260505074322 | 53 | 0 | 6.0 | 14.0 | 0.00 | 0.01 | 0.00 | 68 | 1011.9 |
| 20260505074048 | 52 | 7 | 4.0 | 9.0 | 0.00 | 0.01 | 0.00 | 70 | 1011.8 |
| 20260505073322 | 52 | 306 | 4.0 | 11.0 | 0.00 | 0.01 | 0.00 | 72 | 1011.9 |
| 20260505072821 | 52 | 312 | 6.0 | 11.0 | 0.00 | 0.01 | 0.00 | 73 | 1011.9 |
| 20260505072318 | 52 | 292 | 4.0 | 9.0 | 0.00 | 0.01 | 0.00 | 74 | 1012.0 |
| 20260505071817 | 51 | 317 | 2.0 | 9.0 | 0.00 | 0.01 | 0.00 | 75 | 1012.0 |
| 20260505071317 | 50 | 329 | 5.0 | 11.0 | 0.00 | 0.01 | 0.00 | 75 | 1012.1 |
| 20260505070816 | 50 | 344 | 5.0 | 11.0 | 0.00 | 0.01 | 0.00 | 75 | 1012.1 |
| 20260505070315 | 50 | 353 | 4.0 | 9.0 | 0.00 | 0.01 | 0.00 | 75 | 1012.1 |
| 20260505065815 | 50 | 310 | 5.0 | 11.0 | 0.00 | 0.01 | 0.00 | 75 | 1012.3 |
| 20260505065313 | 50 | 345 | 5.0 | 11.0 | 0.00 | 0.01 | 0.00 | 75 | 1012.2 |
| 20260505064812 | 50 | 316 | 4.0 | 9.0 | 0.00 | 0.01 | 0.00 | 76 | 1012.3 |
| 20260505064532 | 50 | 319 | 3.0 | 9.0 | 0.00 | 0.01 | 0.00 | 76 | 1012.3 |
| 20260505063813 | 49 | 324 | 4.0 | 7.0 | 0.00 | 0.01 | 0.00 | 77 | 1012.3 |
| 20260505063312 | 49 | 334 | 3.0 | 6.0 | 0.00 | 0.01 | 0.00 | 77 | 1012.3 |
| 20260505062811 | 48 | 336 | 3.0 | 7.0 | 0.00 | 0.01 | 0.00 | 78 | 1012.2 |
| 20260505062311 | 48 | 337 | 4.0 | 7.0 | 0.00 | 0.01 | 0.00 | 79 | 1012.2 |
| 20260505061811 | 48 | 312 | 5.0 | 7.0 | 0.00 | 0.01 | 0.00 | 80 | 1012.1 |
| 20260505061311 | 47 | 340 | 3.0 | 9.0 | 0.00 | 0.01 | 0.00 | 80 | 1012.1 |
| 20260505060811 | 47 | 323 | 5.0 | 10.0 | 0.00 | 0.01 | 0.00 | 80 | 1012.1 |
| 20260505060311 | 46 | 316 | 5.0 | 10.0 | 0.00 | 0.01 | 0.00 | 81 | 1012.1 |
| 20260505055811 | 46 | 313 | 5.0 | 11.0 | 0.00 | 0.01 | 0.00 | 82 | 1012.2 |
| 20260505055309 | 45 | 309 | 6.0 | 11.0 | 0.00 | 0.01 | 0.00 | 83 | 1012.1 |
| 20260505054811 | 45 | 338 | 5.0 | 11.0 | 0.00 | 0.01 | 0.00 | 85 | 1012.1 |
| 20260505054310 | 44 | 296 | 5.0 | 10.0 | 0.00 | 0.01 | 0.00 | 86 | 1012.1 |
| 20260505053811 | 43 | 314 | 5.0 | 9.0 | 0.00 | 0.01 | 0.00 | 86 | 1012.0 |
| 20260505053310 | 43 | 320 | 4.0 | 7.0 | 0.00 | 0.01 | 0.00 | 86 | 1011.9 |
| 20260505052810 | 43 | 348 | 4.0 | 7.0 | 0.00 | 0.01 | 0.00 | 86 | 1011.9 |
| 20260505052310 | 43 | 327 | 4.0 | 7.0 | 0.00 | 0.01 | 0.00 | 86 | 1011.9 |
| 20260505051809 | 42 | 336 | 4.0 | 7.0 | 0.00 | 0.01 | 0.00 | 86 | 1011.9 |
| 20260505051309 | 43 | 331 | 4.0 | 7.0 | 0.00 | 0.01 | 0.00 | 86 | 1012.0 |
| 20260505051030 | 43 | 330 | 4.0 | 7.0 | 0.00 | 0.01 | 0.00 | 86 | 1011.9 |
| 20260505050322 | 43 | 334 | 4.0 | 7.0 | 0.00 | 0.01 | 0.00 | 86 | 1011.8 |
| 20260505041533 | 43 | 319 | 4.0 | 9.0 | 0.00 | 0.01 | 0.00 | 86 | 1011.6 |
| 20260505040807 | 43 | 319 | 4.0 | 10.0 | 0.00 | 0.01 | 0.00 | 86 | 1011.6 |
| 20260505040308 | 43 | 333 | 6.0 | 10.0 | 0.00 | 0.01 | 0.00 | 86 | 1011.5 |
| 20260505040031 | 43 | 324 | 5.0 | 9.0 | 0.00 | 0.01 | 0.00 | 86 | 1011.5 |
| 20260505035308 | 43 | 320 | 5.0 | 9.0 | 0.00 | 0.01 | 0.00 | 86 | 1011.5 |
| 20260505034807 | 43 | 316 | 3.0 | 10.0 | 0.00 | 0.01 | 0.00 | 86 | 1011.5 |
| 20260505034535 | 43 | 305 | 3.0 | 10.0 | 0.00 | 0.01 | 0.00 | 86 | 1011.5 |
| 20260505033807 | 43 | 292 | 4.0 | 10.0 | 0.00 | 0.01 | 0.00 | 86 | 1011.5 |
| 20260505033308 | 43 | 320 | 4.0 | 6.0 | 0.00 | 0.01 | 0.00 | 86 | 1011.5 |
| 20260505032807 | 43 | 316 | 4.0 | 6.0 | 0.00 | 0.01 | 0.00 | 86 | 1011.6 |
| 20260505032307 | 43 | 313 | 3.0 | 6.0 | 0.00 | 0.01 | 0.00 | 86 | 1011.6 |
| 20260505031807 | 43 | 310 | 4.0 | 6.0 | 0.00 | 0.01 | 0.00 | 86 | 1011.6 |
| 20260505031306 | 43 | 302 | 3.0 | 5.0 | 0.00 | 0.01 | 0.00 | 86 | 1011.6 |
| 20260505030806 | 43 | 305 | 3.0 | 5.0 | 0.00 | 0.01 | 0.00 | 86 | 1011.6 |
| 20260505025806 | 43 | 303 | 4.0 | 6.0 | 0.00 | 0.01 | 0.00 | 86 | 1011.7 |
| 20260505025307 | 43 | 306 | 4.0 | 6.0 | 0.00 | 0.01 | 0.00 | 86 | 1011.8 |
| 20260505024806 | 43 | 309 | 3.0 | 5.0 | 0.00 | 0.01 | 0.00 | 85 | 1011.7 |
| 20260505024306 | 43 | 305 | 4.0 | 6.0 | 0.00 | 0.01 | 0.00 | 85 | 1011.8 |
| 20260505023807 | 43 | 303 | 3.0 | 6.0 | 0.00 | 0.01 | 0.00 | 85 | 1011.7 |
| 20260505023306 | 43 | 302 | 2.0 | 5.0 | 0.00 | 0.01 | 0.00 | 84 | 1011.8 |
| 20260505022806 | 44 | 302 | 3.0 | 5.0 | 0.00 | 0.01 | 0.00 | 84 | 1011.8 |
| 20260505022305 | 44 | 302 | 2.0 | 4.0 | 0.00 | 0.01 | 0.00 | 84 | 1011.8 |
| 20260505021808 | 44 | 302 | 2.0 | 4.0 | 0.00 | 0.01 | 0.00 | 83 | 1011.8 |
| 20260505021306 | 44 | 302 | 3.0 | 6.0 | 0.00 | 0.01 | 0.00 | 83 | 1011.9 |
| 20260505020805 | 44 | 302 | 4.0 | 7.0 | 0.00 | 0.01 | 0.00 | 83 | 1011.9 |
| 20260505020306 | 44 | 298 | 4.0 | 9.0 | 0.00 | 0.01 | 0.00 | 83 | 1011.9 |
| 20260505015805 | 44 | 309 | 5.0 | 11.0 | 0.00 | 0.01 | 0.00 | 83 | 1011.9 |
| 20260505015304 | 44 | 282 | 5.0 | 11.0 | 0.00 | 0.01 | 0.00 | 83 | 1011.9 |
| 20260505014806 | 44 | 309 | 6.0 | 11.0 | 0.00 | 0.01 | 0.00 | 83 | 1012.1 |
| 20260505014304 | 44 | 298 | 4.0 | 9.0 | 0.00 | 0.01 | 0.00 | 83 | 1012.1 |
| 20260505013804 | 44 | 293 | 4.0 | 7.0 | 0.00 | 0.01 | 0.00 | 83 | 1012.2 |
| 20260505013522 | 44 | 292 | 5.0 | 7.0 | 0.00 | 0.01 | 0.00 | 83 | 1012.2 |
| 20260505012804 | 44 | 289 | 4.0 | 9.0 | 0.00 | 0.01 | 0.00 | 83 | 1012.2 |
| 20260505012528 | 44 | 286 | 4.0 | 9.0 | 0.00 | 0.02 | 0.00 | 83 | 1012.2 |
| 20260505011805 | 44 | 292 | 4.0 | 9.0 | 0.00 | 0.02 | 0.00 | 83 | 1012.1 |
| 20260505011306 | 44 | 298 | 4.0 | 11.0 | 0.00 | 0.02 | 0.00 | 83 | 1012.2 |
| 20260505010804 | 44 | 306 | 5.0 | 11.0 | 0.00 | 0.02 | 0.00 | 84 | 1012.2 |
| 20260505005803 | 44 | 306 | 3.0 | 6.0 | 0.00 | 0.02 | 0.00 | 83 | 1012.2 |
| 20260505005524 | 44 | 309 | 1.0 | 4.0 | 0.00 | 0.02 | 0.00 | 83 | 1012.2 |
| 20260505004805 | 44 | 309 | 2.0 | 4.0 | 0.00 | 0.02 | 0.00 | 82 | 1012.4 |
| 20260505004303 | 44 | 310 | 3.0 | 4.0 | 0.00 | 0.02 | 0.00 | 82 | 1012.3 |
| 20260505003802 | 45 | 310 | 1.0 | 3.0 | 0.00 | 0.02 | 0.00 | 82 | 1012.3 |
| 20260505003302 | 45 | 310 | 1.0 | 5.0 | 0.00 | 0.02 | 0.00 | 82 | 1012.4 |
| 20260505002802 | 45 | 310 | 2.0 | 5.0 | 0.00 | 0.02 | 0.00 | 81 | 1012.4 |
| 20260505002303 | 45 | 300 | 3.0 | 5.0 | 0.00 | 0.02 | 0.00 | 81 | 1012.4 |
| 20260505001802 | 45 | 296 | 2.0 | 5.0 | 0.00 | 0.02 | 0.00 | 81 | 1012.4 |
| 20260505001527 | 46 | 296 | 2.0 | 5.0 | 0.00 | 0.02 | 0.00 | 81 | 1012.4 |
| 20260505000800 | 46 | 295 | 2.0 | 6.0 | 0.00 | 0.02 | 0.00 | 81 | 1012.5 |
| 20260505000301 | 46 | 313 | 3.0 | 6.0 | 0.00 | 0.02 | 0.00 | 81 | 1012.4 |
| 20260504235801 | 46 | 316 | 3.0 | 6.0 | 0.00 | 0.02 | 0.00 | 81 | 1012.4 |
| 20260504235300 | 46 | 314 | 3.0 | 4.0 | 0.00 | 0.02 | 0.00 | 82 | 1012.5 |
| 20260504234801 | 46 | 316 | 2.0 | 5.0 | 0.00 | 0.02 | 0.00 | 82 | 1012.4 |
| 20260504234528 | 46 | 314 | 2.0 | 5.0 | 0.00 | 0.02 | 0.00 | 82 | 1012.5 |
| 20260504233758 | 47 | 316 | 3.0 | 6.0 | 0.00 | 0.02 | 0.00 | 81 | 1012.5 |
| 20260504233515 | 47 | 317 | 3.0 | 6.0 | 0.00 | 0.02 | 0.00 | 81 | 1012.5 |
| 20260504233021 | 47 | 314 | 3.0 | 6.0 | 0.00 | 0.02 | 0.00 | 81 | 1012.4 |
| 20260504232256 | 47 | 313 | 3.0 | 9.0 | 0.00 | 0.02 | 0.00 | 81 | 1012.4 |
| 20260504231756 | 47 | 305 | 4.0 | 9.0 | 0.00 | 0.02 | 0.00 | 81 | 1012.4 |
| 20260504231255 | 47 | 336 | 3.0 | 7.0 | 0.00 | 0.02 | 0.00 | 81 | 1012.5 |
| 20260504231020 | 48 | 314 | 4.0 | 7.0 | 0.00 | 0.02 | 0.00 | 81 | 1012.4 |
| 20260504230255 | 48 | 293 | 3.0 | 9.0 | 0.00 | 0.02 | 0.00 | 81 | 1012.4 |
| 20260504225755 | 48 | 293 | 5.0 | 9.0 | 0.00 | 0.02 | 0.02 | 81 | 1012.4 |
| 20260504225254 | 48 | 316 | 6.0 | 10.0 | 0.00 | 0.02 | 0.02 | 81 | 1012.5 |
| 20260504224754 | 48 | 281 | 6.0 | 10.0 | 0.00 | 0.02 | 0.02 | 81 | 1012.5 |
| 20260504224254 | 48 | 293 | 5.0 | 11.0 | 0.00 | 0.02 | 0.02 | 81 | 1012.5 |
| 20260504223754 | 49 | 303 | 6.0 | 11.0 | 0.00 | 0.02 | 0.02 | 80 | 1012.5 |
| 20260504223254 | 49 | 289 | 5.0 | 9.0 | 0.00 | 0.02 | 0.02 | 80 | 1012.6 |
| 20260504222754 | 49 | 307 | 4.0 | 9.0 | 0.00 | 0.02 | 0.02 | 80 | 1012.7 |
| 20260504222254 | 49 | 292 | 6.0 | 9.0 | 0.00 | 0.02 | 0.02 | 80 | 1012.6 |
| 20260504221754 | 49 | 272 | 4.0 | 10.0 | 0.00 | 0.02 | 0.02 | 80 | 1012.8 |
| 20260504221254 | 49 | 290 | 5.0 | 10.0 | 0.00 | 0.02 | 0.02 | 81 | 1012.8 |
| 20260504220753 | 49 | 283 | 5.0 | 10.0 | 0.00 | 0.02 | 0.02 | 81 | 1012.7 |
| 20260504220253 | 49 | 288 | 5.0 | 11.0 | 0.00 | 0.02 | 0.02 | 81 | 1012.7 |
| 20260504215753 | 49 | 303 | 6.0 | 11.0 | 0.00 | 0.02 | 0.02 | 82 | 1012.6 |
| 20260504215518 | 49 | 293 | 6.0 | 10.0 | 0.00 | 0.02 | 0.02 | 82 | 1012.7 |
| 20260504214753 | 49 | 259 | 5.0 | 12.0 | 0.00 | 0.02 | 0.02 | 83 | 1012.7 |
| 20260504214253 | 50 | 293 | 6.0 | 12.0 | 0.00 | 0.02 | 0.02 | 83 | 1012.8 |
| 20260504213754 | 50 | 272 | 5.0 | 9.0 | 0.00 | 0.02 | 0.02 | 84 | 1012.8 |
| 20260504213252 | 50 | 288 | 6.0 | 9.0 | 0.00 | 0.02 | 0.02 | 84 | 1012.9 |
| 20260504212752 | 50 | 282 | 4.0 | 9.0 | 0.00 | 0.02 | 0.02 | 84 | 1012.9 |
| 20260504212251 | 50 | 258 | 5.0 | 9.0 | 0.00 | 0.02 | 0.02 | 84 | 1013.0 |
| 20260504211753 | 50 | 269 | 5.0 | 9.0 | 0.00 | 0.02 | 0.02 | 84 | 1012.9 |
| 20260504211252 | 50 | 300 | 4.0 | 9.0 | 0.00 | 0.02 | 0.02 | 84 | 1012.8 |
| 20260504210752 | 50 | 268 | 4.0 | 9.0 | 0.00 | 0.02 | 0.02 | 84 | 1012.9 |
| 20260504210252 | 51 | 281 | 4.0 | 9.0 | 0.00 | 0.02 | 0.02 | 84 | 1012.9 |
| 20260504205753 | 51 | 266 | 5.0 | 9.0 | 0.00 | 0.02 | 0.02 | 84 | 1013.0 |
| 20260504205252 | 51 | 295 | 5.0 | 7.0 | 0.00 | 0.02 | 0.02 | 84 | 1012.9 |
| 20260504204751 | 51 | 283 | 5.0 | 10.0 | 0.00 | 0.02 | 0.02 | 84 | 1012.9 |
| 20260504204509 | 51 | 290 | 6.0 | 10.0 | 0.00 | 0.02 | 0.02 | 83 | 1012.8 |
| 20260504203751 | 52 | 289 | 4.0 | 9.0 | 0.00 | 0.02 | 0.02 | 83 | 1012.9 |
| 20260504203252 | 52 | 289 | 4.0 | 9.0 | 0.00 | 0.02 | 0.02 | 83 | 1012.9 |
| 20260504202752 | 52 | 293 | 5.0 | 7.0 | 0.00 | 0.02 | 0.02 | 83 | 1012.9 |
| 20260504202251 | 52 | 281 | 5.0 | 7.0 | 0.00 | 0.02 | 0.02 | 83 | 1013.0 |
| 20260504201752 | 53 | 271 | 4.0 | 7.0 | 0.00 | 0.02 | 0.02 | 82 | 1012.9 |
| 20260504201251 | 53 | 271 | 5.0 | 9.0 | 0.00 | 0.02 | 0.02 | 82 | 1012.9 |
| 20260504200751 | 53 | 272 | 5.0 | 9.0 | 0.00 | 0.02 | 0.02 | 82 | 1012.9 |
| 20260504200250 | 53 | 289 | 4.0 | 9.0 | 0.00 | 0.02 | 0.02 | 81 | 1012.9 |
| 20260504195750 | 54 | 276 | 6.0 | 11.0 | 0.00 | 0.02 | 0.02 | 81 | 1012.9 |
| 20260504195250 | 54 | 314 | 6.0 | 11.0 | 0.00 | 0.02 | 0.02 | 81 | 1012.8 |
| 20260504194750 | 54 | 305 | 5.0 | 11.0 | 0.00 | 0.02 | 0.02 | 81 | 1012.8 |
| 20260504194250 | 54 | 331 | 5.0 | 11.0 | 0.00 | 0.02 | 0.02 | 81 | 1012.7 |
| 20260504193750 | 55 | 299 | 6.0 | 11.0 | 0.00 | 0.02 | 0.02 | 82 | 1012.7 |
| 20260504193250 | 55 | 243 | 4.0 | 5.0 | 0.00 | 0.02 | 0.02 | 82 | 1012.6 |
| 20260504192749 | 55 | 237 | 3.0 | 5.0 | 0.00 | 0.02 | 0.02 | 82 | 1012.6 |
| 20260504192250 | 55 | 235 | 2.0 | 6.0 | 0.00 | 0.02 | 0.02 | 82 | 1012.4 |
| 20260504191750 | 55 | 237 | 3.0 | 7.0 | 0.00 | 0.02 | 0.02 | 81 | 1012.4 |
| 20260504191249 | 55 | 233 | 4.0 | 7.0 | 0.00 | 0.02 | 0.02 | 81 | 1012.3 |
| 20260504190749 | 56 | 233 | 4.0 | 7.0 | 0.00 | 0.02 | 0.02 | 81 | 1012.3 |
| 20260504190518 | 56 | 235 | 5.0 | 7.0 | 0.00 | 0.02 | 0.02 | 80 | 1012.2 |
| 20260504185749 | 56 | 233 | 4.0 | 6.0 | 0.00 | 0.02 | 0.02 | 80 | 1012.3 |
| 20260504185249 | 56 | 234 | 3.0 | 7.0 | 0.00 | 0.02 | 0.02 | 81 | 1012.3 |
| 20260504184749 | 56 | 228 | 4.0 | 7.0 | 0.00 | 0.02 | 0.02 | 80 | 1012.3 |
| 20260504184249 | 56 | 223 | 4.0 | 6.0 | 0.00 | 0.02 | 0.02 | 80 | 1012.3 |
| 20260504184013 | 56 | 220 | 3.0 | 9.0 | 0.00 | 0.02 | 0.02 | 80 | 1012.3 |
| 20260504183248 | 56 | 223 | 4.0 | 9.0 | 0.00 | 0.02 | 0.02 | 79 | 1012.3 |
| 20260504182749 | 56 | 223 | 5.0 | 7.0 | 0.00 | 0.02 | 0.02 | 80 | 1012.3 |
| 20260504182248 | 56 | 241 | 2.0 | 6.0 | 0.00 | 0.02 | 0.02 | 79 | 1012.3 |
| 20260504181748 | 57 | 241 | 4.0 | 7.0 | 0.00 | 0.02 | 0.02 | 78 | 1012.3 |
| 20260504181248 | 57 | 243 | 4.0 | 7.0 | 0.00 | 0.02 | 0.02 | 78 | 1012.3 |
| 20260504180748 | 57 | 251 | 5.0 | 7.0 | 0.00 | 0.02 | 0.02 | 78 | 1012.4 |
| 20260504180247 | 57 | 265 | 2.0 | 5.0 | 0.00 | 0.02 | 0.02 | 78 | 1012.3 |
| 20260504175748 | 57 | 265 | 3.0 | 6.0 | 0.00 | 0.02 | 0.02 | 76 | 1012.3 |
| 20260504175247 | 57 | 265 | 3.0 | 6.0 | 0.00 | 0.02 | 0.02 | 77 | 1012.4 |
| 20260504174248 | 57 | 217 | 4.0 | 6.0 | 0.00 | 0.02 | 0.02 | 77 | 1012.4 |
| 20260504173747 | 57 | 210 | 2.0 | 6.0 | 0.00 | 0.02 | 0.02 | 77 | 1012.4 |
| 20260504173247 | 57 | 206 | 4.0 | 6.0 | 0.00 | 0.02 | 0.02 | 77 | 1012.4 |
| 20260504172747 | 57 | 203 | 4.0 | 7.0 | 0.00 | 0.02 | 0.02 | 76 | 1012.4 |
| 20260504172246 | 57 | 212 | 4.0 | 7.0 | 0.00 | 0.02 | 0.02 | 75 | 1012.3 |
| 20260504171748 | 58 | 202 | 5.0 | 7.0 | 0.00 | 0.02 | 0.02 | 76 | 1012.4 |
| 20260504171247 | 58 | 207 | 3.0 | 6.0 | 0.00 | 0.02 | 0.02 | 76 | 1012.4 |
| 20260504170746 | 58 | 206 | 3.0 | 6.0 | 0.00 | 0.02 | 0.02 | 75 | 1012.5 |
| 20260504170246 | 58 | 207 | 4.0 | 6.0 | 0.00 | 0.02 | 0.02 | 74 | 1012.4 |
| 20260504160245 | 60 | 171 | 5.0 | 10.0 | 0.00 | 0.02 | 0.02 | 73 | 1012.5 |
| 20260504150743 | 59 | 193 | 6.0 | 11.0 | 0.00 | 0.02 | 0.02 | 76 | 1012.9 |
| 20260504150243 | 58 | 214 | 5.0 | 10.0 | 0.00 | 0.02 | 0.02 | 75 | 1012.8 |
| 20260504141242 | 58 | 213 | 2.0 | 7.0 | 0.00 | 0.02 | 0.02 | 74 | 1013.2 |
| 20260504140742 | 58 | 213 | 3.0 | 11.0 | 0.00 | 0.02 | 0.02 | 72 | 1013.2 |
| 20260504140243 | 60 | 233 | 4.0 | 11.0 | 0.00 | 0.02 | 0.02 | 71 | 1013.2 |
| 20260504130741 | 59 | 207 | 3.0 | 7.0 | 0.00 | 0.03 | 0.02 | 75 | 1013.5 |
| 20260504130241 | 59 | 221 | 4.0 | 7.0 | 0.00 | 0.03 | 0.02 | 74 | 1013.4 |
| 20260504120239 | 57 | 162 | 2.0 | 7.0 | 0.00 | 0.04 | 0.02 | 75 | 1013.4 |
| 20260504110239 | 54 | 179 | 2.0 | 5.0 | 0.00 | 0.04 | 0.02 | 78 | 1013.6 |
| 20260504100504 | 54 | 134 | 2.0 | 9.0 | 0.01 | 0.05 | 0.02 | 83 | 1013.8 |